Starlink 31153

operational
NORAD ID: 59044 Int'l Des: 2024-038 Owner: SPXS Country: US Constellation: starlink
LEOCIRCULAR

About Starlink 31153

Description loading...

Live Position

Loading 3D Globe...

Upcoming Passes

Altitude History

Altitude vs Time

uPlot chart will show altitude changes over time

Two-Line Element Set

1 59044U 24038X 26062.04751677 -.00000928 00000-0 -24201-4 0 9996
2 59044 43.0057 60.9683 0001189 278.7864 81.2853 15.27570317113679
Epoch: Mar 3, 2026 • Age: 26 hours

Current Status

Altitude 482.4 km
Velocity 7.63 km/s
Sub-Earth Point 17.35°N, 122.8°W
Launch Date Feb 25, 2024
Age 2 years
Type internet

Technical Details

Classification Payload
Mass 730.00 kg
Dry Mass 700.00 kg
Total Mass 730.00 kg
Length 0.30 m
Diameter 4.10 m
Span 29.00 m
Shape Box + pan
Manufacturer SPXS
Bus Type Starlink V2M
Phase Status In Orbit
Owner/State SPXS/US

Large Constellations

Loading constellations...